Location: Palomar Mountain Lodge
(33.3110°N, 116.8495°W)
Time: 04:32:36
(UTC-07:00)

Tiangong - Pass Details

Date: 20 February 2026
Orbit: 381 x 391 km, 41.5° (Epoch: 8 March)

Event Time Altitude Azimuth Distance (km) Brightness Sun altitude
Rises 18:08:21 0° 301° (WNW) 2,252 2.6 -7.3°
Reaches altitude 10° 18:10:32 10° 311° (NW) 1,395 1.3 -7.8°
Maximum altitude 18:13:27 35° 19° (NNE) 637 -1.3 -8.4°
Enters shadow 18:15:59 13° 85° (E) 1,245 -0.3 -8.9°
